Etusivu
METAR-TAF:

METAR-TAF

Lentoasemat :

Illinois Valley Regional Airport (Walter A. Duncan Field)

Peru / LaSalle, Illinois, Yhdysvallat

Leveyspiiri: 41-21-07N, Pituuspiiri: 089-09-11W, korkeus merenpinnasta: 199 m

Tämänhetkinen sää

Tämä raportti tehtiin 16 minuuttia sitten, kello 07.15 UTC
Tuuli 7 kn lännestä
Lämpötila 8°C
Kosteus 93%
Ilmanpaine 1013 hPa
Näkyvyys: 16.1 km
selkeää

METAR: KVYS 290715Z AUTO 26007KT 10SM CLR 08/07 A2990 RMK AO2 T00760067

Aika: 02:31 (07:31 UTC)


TAF: puuttuu

Säähavainnot ja -ennusteet yli 4000 lentoasemalta (METAR- ja TAF-raportit).

Käytössä olevat sääasemat on merkitty karttaan keltaisilla ja punaisilla pisteillä.

Aseta hiiri pisteen päälle nähdäksesi sääaseman nimen.

Klikkaa sitten nähdäksesi säähavainnot ja -ennusteet.

Kartan vaihtaminen: klikkaa mustalla rastilla varustettuja vihreitä pisteitä, niin voit zoomata sisään; viivalla varustettua vihreää pistettä, niin voit zoomata ulos tai vihreitä nuolia, niin pääset viereisille kartoille.


METAR-TAF: